Orbital Elements at Epoch 2459000.5 (2020-May-31.0) TDB
Reference: JPL 20 (heliocentric ecliptic J2000)
Element | Value | Uncertainty (1-sigma) | Units |
e | .1643713118766116 | 5.5117e-08 | |
a | 3.183815027697027 | 4.2217e-08 | au |
q | 2.660487174821995 | 1.7624e-07 | au |
i | 15.38329204531984 | 9.6131e-06 | deg |
node | 153.1312926411842 | 1.9026e-05 | deg |
peri | 258.5838173328347 | 4.5813e-05 | deg |
M | 308.8903774643751 | 3.4272e-05 | deg |
tp | 2459295.091588391339 (2021-Mar-21.59158839) | 0.00019433 | TDB |
period | 2075.009881885945 5.68 | 4.1271e-05 1.13e-07 | d yr |
n | .1734931496677025 | 3.4507e-09 | deg/d |
Q | 3.707142880572058 | 4.9156e-08 | au |
|
| | Orbit Determination Parameters
Additional Information
|